Content
SEND FEEDBACK

Daily
Averages
Monthly
Summary
Mexico

PLAYA DEL CARMEN, QUINTANA ROO


Home > North America > Mexico > Quintana Roo
Elevation: 30 feet     Latitude: 20 38N     Longitude: 087 04W

WEATHER
 
SELECT A DAY
Number of Records: 202,462;   Date Range: 2/21/06 - 10/29/14
 
SHARE

PRINT THIS DATA

[ ← Previous Day ]
WEATHER ALMANAC - JULY 1, 2013
[ Next Day → ]
[ °C ]   °F
We're sorry. There is no daily almanac available for Playa del Carmen, Quintana Roo on July 1, 2013.
WEATHER BY HOUR - JULY 1, 2013
[ °C ]   °F
Local TimeTemperatureDewpointHumidityBarometerVisibilityWind DirectionWind SpeedGust SpeedPrecipitationEventsConditions
12:35 AM77.0 °F0.0 °F29.93 in10.0 miSouth (170°)5.8 mphRainLight Rain
12:55 AM77.0 °F0.0 °F29.93 in10.0 miSouth (170°)5.8 mphLight Drizzle
1:15 AM77.0 °F0.0 °F29.92 in10.0 miSSE (160°)5.8 mphMostly Cloudy
1:35 AM75.2 °F0.0 °F29.91 in10.0 miSE (140°)8.1 mphScattered Clouds
1:55 AM77.0 °F0.0 °F29.93 in10.0 miSSE (160°)8.1 mphMostly Cloudy
2:15 AM77.0 °F0.0 °F29.93 in10.0 miSSE (150°)6.9 mphScattered Clouds
2:35 AM77.0 °F0.0 °F29.92 in10.0 miSSE (160°)8.1 mphScattered Clouds
2:55 AM77.0 °F0.0 °F29.91 in10.0 miSSE (160°)5.8 mphScattered Clouds
3:15 AM77.0 °F0.0 °F29.91 in10.0 miSouth (170°)6.9 mphRainLight Rain
3:35 AM75.2 °F0.0 °F29.90 in10.0 miSouth (170°)4.6 mphClear
3:55 AM75.2 °F0.0 °F29.90 in10.0 miSSE (160°)4.6 mphClear
4:15 AM75.2 °F0.0 °F29.90 in10.0 miSouth (170°)8.1 mphClear
4:35 AM75.2 °F0.0 °F29.90 in10.0 miSSE (160°)5.8 mphClear
4:55 AM77.0 °F0.0 °F29.90 in10.0 miSouth (170°)6.9 mphScattered Clouds
5:15 AM75.2 °F0.0 °F29.88 in10.0 miSSE (150°)4.6 mphMostly Cloudy
5:35 AM75.2 °F0.0 °F29.88 in10.0 miSSE (150°)5.8 mphLight Drizzle
5:55 AM77.0 °F0.0 °F29.90 in10.0 miSSE (160°)9.2 mphOvercast
6:15 AM77.0 °F0.0 °F29.90 in10.0 miSouth (170°)9.2 mphMostly Cloudy
6:35 AM77.0 °F0.0 °F29.92 in10.0 miSouth (170°)8.1 mphScattered Clouds
6:55 AM77.0 °F0.0 °F29.92 in10.0 miSouth (180°)9.2 mph16.1 mphClear
7:15 AM77.0 °F0.0 °F29.93 in10.0 miSouth (170°)9.2 mphClear
7:35 AM77.0 °F0.0 °F29.94 in10.0 miSouth (170°)8.1 mphClear
7:55 AM77.0 °F0.0 °F29.95 in10.0 miSouth (170°)8.1 mphMostly Cloudy
8:15 AM77.0 °F0.0 °F29.95 in10.0 miSouth (170°)8.1 mph18.4 mphMostly Cloudy
8:35 AM77.0 °F0.0 °F29.95 in10.0 miSSE (160°)8.1 mphScattered Clouds
8:55 AM77.0 °F0.0 °F29.95 in10.0 miSouth (170°)8.1 mphMostly Cloudy
9:15 AM77.0 °F0.0 °F29.95 in10.0 miSouth (180°)11.5 mphMostly Cloudy
9:35 AM77.0 °F0.0 °F29.96 in10.0 miSouth (170°)10.4 mphMostly Cloudy
9:55 AM77.0 °F0.0 °F29.95 in10.0 miSouth (180°)9.2 mph18.4 mphScattered Clouds
10:15 AM77.0 °F0.0 °F29.96 in10.0 miSouth (190°)8.1 mphRainLight Rain
10:35 AM77.0 °F0.0 °F29.96 in10.0 miSouth (190°)8.1 mphLight Drizzle
10:55 AM77.0 °F0.0 °F29.96 in10.0 miSouth (190°)6.9 mphRainLight Rain
11:15 AM78.8 °F0.0 °F29.97 in10.0 miSouth (190°)5.8 mphLight Drizzle
11:35 AM78.8 °F0.0 °F29.98 in10.0 miSSW (200°)6.9 mphRainLight Rain
11:55 AM78.8 °F0.0 °F29.99 in10.0 miSouth (190°)6.9 mph0.01 inRainLight Rain
12:15 PM78.8 °F0.0 °F30.00 in10.0 miSouth (190°)6.9 mphRainLight Rain
12:35 PM78.8 °F0.0 °F30.00 in10.0 miSSW (200°)8.1 mphRainLight Rain
12:55 PM80.6 °F0.0 °F30.00 in10.0 miSSW (210°)9.2 mphRainLight Rain
1:15 PM78.8 °F0.0 °F29.99 in10.0 miSSW (200°)11.5 mphRainLight Rain
1:35 PM78.8 °F0.0 °F29.99 in10.0 miSSW (210°)8.1 mphScattered Clouds
1:55 PM80.6 °F0.0 °F29.97 in10.0 miSSW (210°)5.8 mphMostly Cloudy
2:15 PM80.6 °F0.0 °F29.97 in10.0 miSouth (190°)9.2 mphMostly Cloudy
2:35 PM82.4 °F77.0 °F84 %29.97 in10.0 miSSW (200°)9.2 mph16.1 mphMostly Cloudy
2:55 PM78.8 °F78.8 °F100 %29.98 in4.0 miSouth (190°)15.0 mph20.7 mph0.05 inRainHeavy Rain
3:15 PM77.0 °F77.0 °F100 %29.99 in7.0 miSouth (180°)12.7 mph0.06 inRainLight Rain
3:35 PM78.8 °F0.0 °F29.98 in10.0 miSouth (190°)11.5 mph16.1 mph0.06 inMostly Cloudy
3:55 PM78.8 °F0.0 °F29.98 in10.0 miSouth (180°)10.4 mph0.06 inRainLight Rain
4:15 PM77.0 °F0.0 °F29.99 in10.0 miSouth (180°)8.1 mphRainLight Rain
4:35 PM77.0 °F0.0 °F29.99 in10.0 miSSE (160°)6.9 mphRainLight Rain
4:55 PM77.0 °F0.0 °F29.99 in10.0 miSouth (180°)9.2 mphRainLight Rain
5:15 PM77.0 °F0.0 °F29.99 in10.0 miSSW (200°)6.9 mphOvercast
5:35 PM77.0 °F0.0 °F29.99 in10.0 miSSE (160°)6.9 mphLight Drizzle
5:55 PM77.0 °F0.0 °F29.99 in10.0 miSSW (200°)12.7 mphRainLight Rain
6:15 PM77.0 °F0.0 °F29.99 in10.0 miSouth (190°)5.8 mphMostly Cloudy
6:35 PM77.0 °F0.0 °F30.00 in7.0 miSouth (180°)9.2 mphRainRain
6:55 PM77.0 °F0.0 °F30.01 in7.0 miSSE (150°)9.2 mph0.02 inRainLight Rain
7:15 PM75.2 °F0.0 °F30.01 in10.0 miSE (140°)6.9 mph0.01 inRainLight Rain
7:35 PM75.2 °F0.0 °F30.02 in10.0 miSSE (150°)5.8 mph0.01 inRainLight Rain
7:55 PM75.2 °F0.0 °F30.01 in10.0 miSSE (150°)4.6 mph0.02 inRainLight Rain
8:15 PM75.2 °F0.0 °F30.01 in10.0 miSouth (170°)5.8 mphLight Drizzle
8:35 PM75.2 °F0.0 °F30.01 in10.0 miSouth (170°)4.6 mphLight Drizzle
8:55 PM75.2 °F0.0 °F30.01 in10.0 miSE (140°)3.5 mph0.01 inRainLight Rain
9:15 PM75.2 °F0.0 °F30.02 in10.0 miSE (140°)6.9 mph0.01 inRainLight Rain
9:35 PM75.2 °F0.0 °F30.03 in10.0 miSE (130°)5.8 mph0.02 inRainLight Rain
9:55 PM75.2 °F0.0 °F30.04 in10.0 miSE (140°)5.8 mph0.03 inRainLight Rain
10:15 PM75.2 °F0.0 °F30.04 in10.0 miSSE (150°)5.8 mphRainLight Rain
10:35 PM75.2 °F0.0 °F30.04 in10.0 miESE (120°)6.9 mph0.01 inRainRain
10:55 PM75.2 °F0.0 °F30.04 in7.0 miSE (130°)6.9 mph0.04 inRainRain
11:15 PM73.4 °F0.0 °F30.03 in10.0 miESE (120°)4.6 mph0.01 inRainLight Rain
11:35 PM73.4 °F0.0 °F30.03 in10.0 miCalm0.01 inScattered Clouds
11:55 PM73.4 °F0.0 °F30.03 in10.0 miESE (120°)8.1 mph0.01 inScattered Clouds
Hourly data recorded from KPCM, located miles away from Playa del Carmen, Quintana Roo







STORIES FROM OUR PARTNERS